Location: Passo di Treia
(43.2833°N, 13.3333°E)
Time: 03:35:01
(UTC+00:00)

Centaur D-1A AC-31 - Pass Details

Date: 09 December 2019
Orbit: 527 x 36414 km, 27.2° (Epoch: 24 January)

Event Time Altitude Azimuth Distance (km) Brightness Sun altitude
Rises 17:35:31 0° 231° (SW) 2,776 5.4 -21.9°
Reaches altitude 10° 17:37:37 10° 209° (SSW) 2,202 4.4 -22.2°
Maximum altitude 17:41:00 19° 160° (SSE) 2,376 3.9 -22.9°
Enters shadow 17:45:02 15° 129° (SE) 3,798 4.7 -23.6°
